Vorticity
nan nan nan nan nan nan nan nan nan nan nan nan nan nan nan nan nan nan nan nan nan nan nan nan nan nan nan nan nan nan nan nan nan nan nan nan nan nan nan nan nan nan nan nan nan nan nan nan nan nan nan nan nan nan nan nan nan nan nan nan nan nan nan nan nan nan nan nan nan nan nan nan nan nan nan nan nan nan nan nan nan nan nan nan nan nan
nan 7 10 11 7 3 7 10 8 6 6 6 7 8 9 10 9 10 14 14 12 10 9 10 10 11 13 17 16 12 11 9 8 8 7 7 8 8 8 8 8 8 8 8 8 8 7 8 7 7 8 9 10 10 10 10 10 10 9 9 10 10 10 11 11 11 11 11 11 11 10 10 10 10 10 10 10 10 10 10 10 10 10 10 10 nan
nan 6 8 10 8 5 6 9 9 9 9 8 8 9 9 8 7 7 10 12 13 11 10 10 10 11 12 15 17 16 12 10 9 8 8 8 8 8 8 8 8 8 8 8 7 7 7 8 8 8 9 10 10 10 10 10 10 10 10 10 10 10 11 11 11 10 10 10 9 9 9 9 9 9 9 9 9 9 9 9 9 9 9 9 9 nan
nan 8 8 9 9 8 8 8 9 10 11 10 10 11 10 8 8 8 8 9 10 10 11 10 9 10 12 16 18 18 13 10 9 8 8 8 8 8 8 8 8 8 8 7 7 8 8 9 9 9 9 9 9 9 9 9 9 10 10 10 10 10 11 11 10 9 9 9 9 9 9 9 10 10 10 10 10 10 10 10 10 10 10 10 9 nan
nan 8 9 9 10 11 12 11 10 10 10 11 11 11 10 9 8 9 9 9 9 9 11 12 11 10 9 12 14 15 13 10 9 8 8 7 8 8 8 7 8 8 8 8 8 9 9 9 9 9 9 9 8 9 9 9 10 10 10 10 10 11 11 11 10 10 10 10 10 11 11 11 11 11 11 11 11 11 11 11 11 11 11 11 11 nan
nan 9 9 9 9 11 12 12 11 10 10 10 10 10 9 9 9 9 9 9 10 10 10 12 12 12 10 9 10 12 14 12 11 9 8 8 8 8 8 8 8 9 9 9 9 9 9 9 8 8 8 8 9 9 9 10 10 10 10 10 10 10 10 10 11 11 11 11 12 12 12 12 12 13 12 13 13 12 13 12 12 12 12 12 12 nan
nan 9 9 8 9 10 10 11 11 10 9 9 9 9 9 9 10 10 9 9 9 9 10 11 12 12 12 12 13 16 19 19 20 19 16 14 13 13 12 10 10 10 10 9 9 9 8 8 7 8 8 9 9 10 10 10 10 10 10 10 10 10 10 10 10 11 11 11 12 12 12 13 13 13 13 13 13 13 13 13 13 13 12 12 12 nan
nan 8 8 7 8 8 9 10 10 9 9 9 9 9 8 9 10 11 11 10 9 9 10 10 11 12 13 15 18 19 19 22 24 26 25 26 25 22 17 14 12 11 10 9 8 8 7 7 8 8 9 10 10 10 10 9 9 9 9 9 10 10 10 10 10 11 11 12 12 12 12 12 12 12 12 13 13 13 13 13 13 13 13 12 12 nan
nan 7 8 8 7 7 8 9 10 10 10 9 9 9 9 7 8 10 11 11 11 11 11 10 10 10 12 14 17 18 16 14 13 13 15 18 18 17 15 14 13 12 9 9 8 7 8 8 9 10 10 10 10 9 9 9 9 9 9 10 10 10 10 11 11 11 11 11 12 12 12 12 12 12 12 12 12 11 11 11 12 12 12 12 11 nan
nan 7 8 9 9 8 8 9 10 11 11 10 9 9 9 8 7 8 8 9 11 12 12 11 10 10 10 13 14 16 17 15 12 8 4 2 3 2 4 7 9 9 8 9 9 9 10 10 10 10 10 9 9 8 9 9 10 10 10 10 10 11 10 10 10 11 11 11 11 11 11 11 11 11 11 11 11 10 10 10 10 10 11 11 10 nan
nan 11 9 9 10 10 10 10 10 11 10 9 9 9 9 9 9 8 8 8 8 10 11 11 11 11 10 11 13 14 15 18 20 21 17 12 11 10 11 13 12 12 15 15 15 15 14 12 11 10 10 9 9 9 10 11 11 11 11 10 10 10 10 10 10 10 11 11 11 10 10 10 10 10 10 10 10 10 10 10 10 10 10 10 10 nan
nan 11 11 11 10 10 11 11 10 9 8 7 7 9 10 11 11 10 9 8 8 8 10 11 12 12 11 10 11 12 12 13 15 19 22 23 24 24 25 25 24 24 26 25 25 24 18 15 13 12 11 11 11 11 11 11 10 10 10 10 10 10 10 10 10 10 10 10 10 10 9 9 9 9 9 9 9 9 9 10 10 10 11 11 11 nan
nan 9 11 11 9 9 9 9 8 8 7 7 8 8 10 12 13 12 11 9 9 9 10 10 11 12 12 10 9 10 10 10 10 11 13 16 19 21 21 21 22 24 25 26 26 23 17 16 18 17 14 13 12 12 13 12 10 9 9 10 10 10 10 10 10 10 10 10 10 9 9 9 9 9 9 9 9 9 10 10 11 11 11 12 12 nan
nan 8 9 9 8 8 9 10 8 7 7 8 9 10 10 11 12 12 11 10 10 11 10 8 8 9 12 12 10 9 8 9 9 10 10 11 13 13 13 13 13 14 14 14 13 12 12 17 20 20 19 18 16 16 14 11 9 9 10 9 10 9 9 9 9 9 10 10 10 10 10 10 10 11 11 11 10 10 11 11 11 11 11 11 11 nan
nan 9 8 8 7 7 9 10 10 9 8 8 9 10 10 10 10 10 10 9 10 11 10 9 8 9 11 12 12 11 9 8 9 9 10 11 13 13 12 10 9 9 8 8 7 7 12 16 17 17 19 15 12 8 4 5 6 7 8 8 8 8 8 8 9 9 9 10 10 10 11 11 11 11 11 11 11 11 11 11 10 10 10 10 10 nan
nan 11 10 8 7 7 8 9 10 10 10 10 11 11 10 9 9 10 10 9 10 10 10 10 10 11 13 14 14 13 11 9 10 10 10 11 13 14 11 7 7 7 7 7 8 9 14 14 13 11 11 6 2 0 2 4 5 7 7 7 7 8 8 8 9 9 10 10 10 10 10 10 10 10 10 11 11 11 10 10 10 10 10 10 10 nan
nan 10 10 9 9 9 8 9 9 10 10 10 10 10 10 9 8 9 9 9 9 9 10 11 10 10 12 14 16 15 13 9 9 10 10 9 10 11 7 5 6 7 7 7 8 9 10 11 11 11 7 0 -0 3 5 5 6 7 7 7 8 8 9 9 9 9 9 10 10 10 10 9 10 10 10 10 10 10 10 11 11 11 11 11 11 nan
nan 9 10 10 10 10 9 9 9 9 9 10 10 10 10 10 9 8 8 8 8 7 7 8 9 8 8 9 13 16 14 8 6 7 8 8 8 9 8 7 7 8 8 8 9 9 10 11 8 3 -5 -5 -0 3 5 6 7 7 8 8 9 9 9 9 9 9 10 10 10 10 10 10 11 11 11 11 11 11 11 12 12 12 12 11 11 nan
nan 8 9 10 10 10 9 8 8 8 8 9 10 10 10 10 10 9 8 8 9 8 7 6 6 6 7 7 8 11 11 7 5 6 7 7 8 9 11 10 9 8 8 9 10 11 12 11 8 2 -4 1 4 5 7 8 8 8 9 9 9 9 9 9 9 10 10 11 11 11 12 12 12 13 12 12 12 13 12 12 13 13 12 12 12 nan
nan 7 6 8 10 11 10 9 8 7 7 8 8 9 10 11 11 10 9 9 9 9 9 7 6 5 7 8 8 10 10 9 7 8 9 9 9 10 11 10 9 9 9 10 11 12 12 10 11 11 11 10 8 8 8 8 8 8 8 8 8 8 9 9 10 10 10 11 12 12 13 13 13 13 13 12 12 13 13 13 13 13 14 14 14 nan
nan 8 6 5 6 9 10 12 10 9 7 6 7 8 9 10 10 10 10 10 9 9 8 8 8 7 7 7 9 11 11 10 8 8 10 11 10 10 10 10 10 10 9 11 12 12 12 11 11 12 11 6 6 6 7 7 8 8 8 8 8 9 9 9 10 10 11 11 12 12 13 13 13 13 13 13 13 12 13 14 14 15 15 15 15 nan
nan 10 10 6 3 4 7 11 13 13 9 5 4 5 10 11 10 10 10 10 10 10 9 8 8 8 7 8 8 10 11 10 9 8 9 10 10 10 10 10 10 10 10 11 11 11 11 10 9 7 5 2 4 6 7 8 8 9 9 9 9 9 9 9 10 10 10 11 11 11 12 12 12 12 12 12 12 12 12 13 13 13 14 14 14 nan
nan 9 12 11 7 6 7 10 13 16 14 9 6 3 6 10 10 10 12 12 11 11 11 10 9 9 7 7 7 9 10 11 10 10 8 8 9 10 11 10 9 8 9 9 10 10 10 9 8 8 9 7 8 8 9 9 9 10 10 9 9 9 9 9 9 10 10 10 10 11 10 11 11 11 11 11 10 10 10 11 11 11 12 12 12 nan
nan 8 10 10 9 8 7 8 8 10 12 11 10 8 6 7 8 8 11 12 11 10 11 10 9 9 9 7 7 10 12 12 10 9 8 9 9 10 10 10 9 9 9 10 10 10 9 9 9 11 13 14 13 10 10 10 10 10 10 10 10 9 9 9 9 9 9 9 9 9 10 10 11 11 10 10 10 10 11 11 11 11 12 13 13 nan
nan 6 6 8 7 3 -1 -1 -1 -1 0 5 8 10 10 9 8 7 8 10 9 9 9 9 8 7 9 10 10 12 15 14 10 6 6 9 11 11 10 10 10 10 10 11 10 9 9 9 9 11 12 16 15 13 12 12 11 11 11 10 10 9 9 9 8 8 8 8 8 9 10 10 11 11 11 11 11 11 11 11 12 12 12 13 14 nan
nan 1 0 2 2 -0 -6 -8 -8 -9 -14 -13 -5 3 9 11 10 9 7 8 8 8 7 7 7 6 6 9 11 12 14 13 11 8 6 7 9 11 10 10 10 9 9 10 9 8 6 7 9 11 11 15 17 18 14 13 12 12 11 10 10 9 8 7 7 8 8 8 9 10 11 12 12 12 13 13 12 12 11 12 12 12 12 15 20 nan
nan 1 -1 -3 -2 -1 -2 -4 -5 -5 -11 -18 -18 -14 -4 5 8 8 6 6 7 6 6 6 7 7 7 8 10 12 12 11 11 10 9 7 8 9 10 10 9 9 10 10 9 6 4 7 9 10 11 14 17 19 17 15 13 13 12 10 9 8 7 7 7 8 9 10 11 11 12 12 13 13 13 13 12 12 12 11 12 13 17 26 35 nan
nan 13 6 1 0 0 1 1 1 1 -1 -6 -11 -20 -18 -5 5 7 6 7 8 8 7 7 7 7 8 10 11 12 12 11 11 11 10 7 8 9 11 10 10 9 11 10 9 9 11 12 13 14 14 12 14 17 20 17 17 17 16 12 9 9 8 8 8 9 10 11 11 12 12 12 13 13 13 13 12 12 11 11 13 19 30 38 39 nan
nan 37 26 15 10 7 5 7 9 10 7 4 -1 -11 -18 -9 5 9 10 11 12 11 9 8 7 7 8 10 11 12 12 12 13 12 10 8 8 9 11 10 10 9 9 10 12 14 17 17 16 16 14 11 12 14 17 19 21 22 21 17 16 15 12 11 10 11 11 11 11 12 12 12 13 13 13 13 12 12 11 11 17 29 40 36 27 nan
nan 43 43 37 29 23 19 19 23 25 23 18 11 1 -10 -8 4 11 14 15 15 13 12 11 10 10 11 11 11 12 13 15 14 13 10 8 8 9 11 10 9 8 8 10 12 14 15 16 14 13 11 11 11 10 11 15 19 21 21 23 24 22 16 13 12 12 13 13 12 12 13 13 13 14 14 13 12 12 11 13 21 31 33 24 18 nan
nan 22 30 35 34 31 28 27 30 34 37 34 28 17 4 -1 3 8 12 13 13 13 12 12 13 13 12 10 9 9 12 16 15 11 8 7 7 9 9 9 9 9 9 8 8 9 12 13 13 11 8 9 9 9 8 10 13 15 15 19 21 19 14 13 14 16 18 17 16 15 15 15 14 14 13 13 13 12 12 15 20 25 22 16 13 nan
nan 9 11 16 18 20 20 20 21 24 29 31 30 24 15 7 5 6 8 10 10 11 12 12 12 13 11 8 6 5 7 14 15 10 3 4 7 9 9 8 8 9 10 8 6 5 7 8 9 8 7 9 10 10 10 11 12 12 11 12 13 12 12 16 19 22 23 20 20 20 18 17 16 15 14 14 13 13 13 15 18 19 14 13 12 nan
nan 8 7 8 8 10 10 10 10 11 13 15 15 15 14 12 9 7 7 9 9 10 10 10 10 10 9 8 6 4 5 11 14 10 1 1 6 9 9 9 8 9 9 10 9 7 6 4 4 6 9 11 11 11 12 12 11 11 12 11 11 10 15 19 22 23 20 21 23 23 22 22 21 19 17 17 17 16 15 16 15 12 5 8 9 nan
nan 10 8 8 8 8 9 9 8 8 8 8 9 8 9 11 12 12 10 9 10 10 10 9 8 6 6 7 7 7 7 12 14 12 4 1 5 8 9 9 9 9 9 10 10 10 9 5 3 4 8 10 11 11 11 12 11 12 12 10 9 9 13 15 17 16 14 17 20 20 23 25 24 23 23 21 19 17 14 14 12 8 5 3 2 nan
nan 12 10 9 9 9 10 10 10 10 9 10 11 11 10 11 12 13 13 11 9 9 9 9 8 7 5 5 6 7 8 13 16 14 7 3 5 7 9 10 9 9 9 8 9 9 9 7 5 4 4 7 10 11 11 11 11 12 9 7 7 7 9 10 10 10 12 14 14 15 17 19 19 20 20 15 12 10 9 10 11 10 10 4 1 nan
nan 12 10 9 9 10 10 11 11 11 11 11 12 13 13 12 12 12 13 12 11 10 8 7 7 7 6 6 5 6 7 12 15 15 9 5 6 7 8 9 9 8 8 8 7 7 7 8 8 7 7 8 10 11 11 11 10 9 7 8 8 9 9 9 9 10 11 11 11 11 11 11 12 13 11 6 7 9 11 13 14 16 16 13 10 nan
nan 10 9 9 10 11 11 11 11 11 11 12 12 12 12 11 11 10 11 11 11 11 11 10 9 9 5 3 5 5 7 10 13 14 11 7 7 7 6 8 8 7 7 7 7 7 6 7 9 11 13 11 8 6 6 8 8 8 8 9 10 11 11 11 11 11 11 9 9 8 7 8 10 10 8 11 17 22 24 27 27 25 22 22 18 nan
nan 9 9 9 10 10 11 11 11 12 11 11 12 13 13 12 11 9 10 12 12 11 10 11 12 15 12 4 3 3 6 8 10 12 11 8 8 7 6 7 9 9 7 7 7 7 7 8 9 11 13 11 7 4 4 6 7 8 10 10 11 11 11 11 11 11 9 9 8 7 9 11 12 13 12 19 24 26 28 29 27 24 25 29 27 nan
nan 10 10 9 9 10 10 10 11 12 13 13 11 11 13 14 14 12 11 13 14 14 12 10 11 14 17 13 10 7 7 9 10 11 11 8 7 7 8 7 8 9 9 9 9 8 8 8 8 7 6 8 9 10 10 8 7 7 8 12 15 14 11 9 9 9 9 10 11 12 14 14 13 12 13 15 15 15 16 17 17 18 22 26 28 nan
nan 10 11 11 9 8 8 9 10 11 13 15 14 11 9 11 13 14 14 13 13 12 13 12 10 11 13 15 16 15 12 11 11 9 9 8 7 7 8 7 8 10 11 10 10 9 8 7 6 5 5 6 6 7 7 7 5 3 5 11 12 9 7 7 9 11 12 12 12 13 12 10 9 9 10 10 10 10 10 10 10 11 15 17 19 nan
nan 9 10 12 13 12 10 10 11 12 12 12 12 11 10 9 10 12 13 12 11 10 10 10 10 10 11 12 14 16 15 13 12 8 8 9 7 5 5 7 8 10 12 11 9 9 8 6 7 7 8 7 6 7 7 5 3 4 9 10 6 3 5 9 12 14 13 12 11 9 7 7 9 11 11 10 11 11 9 7 6 7 11 14 13 nan
nan 8 8 9 11 13 14 14 14 13 11 10 10 9 9 8 8 9 10 10 10 10 9 9 9 9 10 11 12 14 15 15 14 11 9 10 8 5 3 5 6 8 10 11 10 10 10 8 7 8 8 8 9 9 9 8 8 10 12 8 6 9 16 19 18 14 10 9 9 8 9 12 13 13 12 13 13 12 10 7 5 6 10 12 12 nan
nan 10 10 9 10 13 14 12 10 10 10 10 10 10 9 9 9 9 8 9 10 11 10 9 10 10 10 10 11 12 15 16 16 15 11 10 10 7 6 5 5 6 8 11 11 11 11 10 9 9 9 9 9 8 7 8 9 11 11 8 9 14 17 15 11 7 7 7 8 10 12 12 11 11 11 12 13 13 13 13 15 16 15 12 11 nan
nan 11 10 10 11 12 12 11 9 10 10 9 9 9 11 12 11 9 7 8 10 11 10 11 11 11 10 10 10 10 13 16 16 17 17 12 8 4 6 9 8 8 6 6 8 9 10 12 11 10 10 10 9 9 8 7 8 9 9 9 10 10 5 3 2 4 8 10 10 10 9 9 9 10 11 12 13 13 14 16 18 18 16 13 12 nan
nan 12 11 11 11 11 10 9 9 10 10 9 9 10 12 13 12 10 7 8 10 10 10 9 9 10 11 11 11 10 10 13 14 15 19 21 17 10 7 9 10 11 10 7 7 6 7 9 10 10 11 10 9 8 7 7 7 8 8 10 11 12 8 5 5 7 9 10 9 8 7 8 9 10 12 12 12 12 12 12 12 11 12 12 12 nan
nan 12 12 12 13 13 11 9 8 9 10 11 10 10 12 12 12 12 10 8 8 9 10 9 6 6 8 9 10 10 9 10 11 12 14 18 21 20 17 13 11 10 11 11 9 8 6 5 6 7 9 10 10 10 9 8 8 9 10 11 13 13 13 11 11 11 9 9 8 7 7 10 11 12 11 11 12 12 12 11 10 9 10 12 12 nan
nan 13 12 12 12 13 13 12 11 11 10 10 11 11 11 11 11 11 12 10 9 9 9 9 8 6 5 5 6 7 7 7 8 9 11 12 14 15 16 17 16 13 10 10 10 9 7 6 5 5 6 8 9 11 11 10 10 10 11 12 12 12 11 11 11 11 10 8 6 6 10 14 13 12 11 12 12 13 12 10 10 11 12 13 13 nan
nan 15 13 12 12 12 12 12 11 11 10 9 10 12 13 12 10 6 8 12 11 10 9 8 8 8 8 6 6 6 5 5 6 8 9 11 12 12 12 13 16 16 14 13 12 12 11 10 8 6 5 6 7 8 10 11 12 12 13 12 12 11 10 10 10 10 10 8 7 8 11 11 10 10 12 12 12 11 10 10 11 13 13 13 13 nan
nan 15 13 11 11 11 11 11 11 10 9 8 8 10 14 17 14 6 4 10 10 11 11 9 8 8 8 8 8 9 8 8 8 8 9 10 10 11 11 11 12 13 13 15 15 16 17 18 17 13 7 4 4 6 9 11 12 13 12 12 13 13 12 12 11 10 10 9 9 10 8 8 8 10 11 12 11 9 9 11 12 13 13 13 12 nan
nan 12 12 10 10 9 10 10 10 10 9 8 8 8 10 13 15 13 10 10 10 10 10 10 9 8 7 7 7 8 9 8 8 8 9 10 10 9 9 9 9 9 10 12 13 14 16 20 24 24 17 7 2 2 8 12 13 14 12 12 12 12 12 11 11 10 8 8 9 10 9 10 11 12 13 13 12 11 12 13 12 12 12 11 10 nan
nan nan nan nan nan nan nan nan nan nan nan nan nan nan nan nan nan nan nan nan nan nan nan nan nan nan nan nan nan nan nan nan nan nan nan nan nan nan nan nan nan nan nan nan nan nan nan nan nan nan nan nan nan nan nan nan nan nan nan nan nan nan nan nan nan nan nan nan nan nan nan nan nan nan nan nan nan nan nan nan nan nan nan nan nan nan
CAPE
nan nan nan nan nan nan nan nan nan nan nan nan nan nan nan nan nan nan nan nan nan nan nan nan nan nan nan nan nan nan 0 3 10 10 16 20 23 23 30 36 36 40 45 53 53 63 73 81 81 92 104 116 131 131 148 154 154 158 152 160 160 164 168 167 167 172 179 190 229 229 256 270 277 277 284 304 329 329 338 360 360 363 369 365 365 360
nan nan nan nan nan nan nan nan nan nan nan nan nan nan nan nan nan nan nan nan nan nan nan nan nan nan nan nan nan nan nan 3 7 7 14 19 24 24 30 36 36 40 47 56 56 66 75 84 84 94 104 111 113 113 116 121 121 127 122 129 129 132 139 148 148 157 170 197 212 212 247 270 276 276 298 311 321 321 313 340 340 330 334 326 326 338
nan nan nan nan nan nan nan nan nan nan nan nan nan nan nan nan nan nan nan nan nan nan nan nan nan nan nan nan nan nan nan 2 8 8 14 21 26 26 33 38 38 42 50 61 61 69 79 83 83 91 93 97 96 96 92 95 95 96 100 106 106 112 115 121 121 134 149 165 182 182 205 224 237 237 249 260 252 252 244 252 252 272 273 279 279 298
nan nan nan nan nan nan nan nan nan nan nan nan nan nan nan nan nan nan nan nan nan nan nan nan nan nan nan nan nan nan nan 2 9 9 16 22 28 28 36 41 41 47 59 64 64 68 76 77 77 77 80 79 82 82 79 79 79 81 86 92 92 99 100 103 103 106 113 128 141 141 153 161 174 174 183 179 181 181 176 194 194 227 250 264 264 281
nan nan nan nan nan nan nan nan nan nan nan nan nan nan nan nan nan nan nan nan nan nan nan nan nan nan nan nan nan nan nan 3 9 9 18 25 33 33 40 46 46 54 61 64 64 68 69 70 70 68 66 65 72 72 74 76 76 77 78 84 84 85 89 93 93 94 96 106 118 118 126 135 144 144 150 151 154 154 161 188 188 214 233 258 258 270
nan nan nan nan nan nan nan nan nan nan nan nan nan nan nan nan nan nan nan nan nan nan nan nan nan nan nan nan nan nan 0 5 12 12 21 29 37 37 44 48 48 54 58 61 61 64 62 60 60 60 60 58 65 65 68 74 74 78 73 72 72 78 80 81 81 86 91 97 104 104 110 118 127 127 134 139 144 144 151 172 172 209 223 249 249 278
nan nan nan nan nan nan nan nan nan nan nan nan nan nan nan nan nan nan nan nan nan nan nan nan nan nan nan nan nan nan 1 7 15 15 23 30 38 38 43 45 45 49 53 55 55 53 53 50 50 54 55 57 62 62 64 66 66 68 65 65 65 66 69 73 73 79 83 86 93 93 98 101 111 111 120 127 131 131 138 154 154 192 218 248 248 279
nan nan nan nan nan nan nan nan nan nan nan nan nan nan nan nan nan nan nan nan nan nan nan nan nan nan nan nan nan nan nan nan nan nan nan 0 11 11 19 30 30 35 39 39 39 38 38 40 40 44 48 50 55 55 57 56 56 52 47 48 48 47 52 56 56 61 64 67 72 72 74 79 84 84 93 101 109 109 119 140 140 161 192 217 217 250
nan nan nan nan nan nan nan nan nan nan nan nan nan nan nan nan nan nan nan nan nan nan nan nan nan nan nan nan nan nan nan nan nan nan nan nan nan nan 2 21 21 29 33 32 32 31 31 33 33 39 42 45 47 47 47 47 47 44 41 39 39 38 42 49 49 57 63 67 70 70 71 75 80 80 84 93 98 98 107 116 116 130 153 176 176 205
nan nan nan nan nan nan nan nan nan nan nan nan nan nan nan nan nan nan nan nan nan nan nan nan nan nan nan nan nan nan nan nan 10 10 19 6 17 17 11 10 10 9 20 19 19 21 23 27 27 33 35 36 37 37 39 36 36 34 31 30 30 33 38 46 46 52 59 62 67 67 71 71 78 78 82 86 92 92 99 103 103 109 127 142 142 166
nan nan nan nan nan nan nan nan nan nan nan nan nan nan nan nan nan nan nan nan nan nan nan nan nan nan nan nan nan nan nan nan nan nan nan 4 8 8 9 5 5 7 8 9 9 10 14 19 19 24 27 28 29 29 27 25 25 25 24 26 26 28 34 44 44 51 60 65 67 67 73 76 77 77 82 87 93 93 101 106 106 113 127 137 137 155
nan nan nan nan nan nan nan nan nan nan nan nan nan nan nan nan nan nan nan nan nan nan nan nan nan nan nan nan nan nan nan nan nan nan nan nan nan nan nan nan nan nan nan 0 0 2 8 12 12 15 15 15 22 22 19 15 15 19 18 20 20 25 33 42 42 53 60 69 76 76 85 89 89 89 91 95 102 102 113 126 126 136 150 166 166 186
nan nan nan nan nan nan nan nan nan nan nan nan nan nan nan nan nan nan nan nan nan nan nan nan nan nan nan nan nan nan nan nan nan nan nan nan nan nan nan nan nan nan nan nan nan nan nan 5 5 8 12 9 14 14 14 11 11 12 14 18 18 25 36 47 47 57 66 79 88 88 98 107 112 112 114 119 128 128 134 142 142 155 178 198 198 214
nan nan nan nan nan nan nan nan nan nan nan nan nan nan nan nan nan nan nan nan nan nan nan nan nan nan nan nan nan nan nan nan nan nan nan nan nan nan nan nan nan nan nan nan nan nan nan nan nan nan 1 1 2 2 3 6 6 10 14 21 21 30 42 51 51 62 71 86 98 98 110 120 129 129 137 142 147 147 154 157 157 168 195 211 211 246
nan nan nan nan nan nan nan nan nan nan nan nan nan nan nan nan nan nan nan nan nan nan nan nan nan nan nan nan nan nan nan nan nan nan nan nan nan nan nan nan nan nan nan nan nan nan nan nan nan nan nan nan nan nan nan 3 3 15 18 24 24 33 42 53 53 59 70 84 99 99 110 124 134 134 146 155 162 162 168 172 172 179 198 220 220 239
nan nan nan nan nan nan nan nan nan nan nan nan nan nan nan nan nan nan nan nan nan nan nan nan nan nan nan nan nan nan nan nan nan nan nan nan nan nan nan nan nan nan nan nan nan nan nan nan nan nan nan nan 1 1 6 8 8 16 19 25 25 32 43 52 52 60 68 81 93 93 106 118 130 130 145 155 169 169 174 178 178 183 192 206 206 223
nan nan nan nan nan nan nan nan nan nan nan nan nan nan nan nan nan nan nan nan nan nan nan nan nan nan nan nan nan nan nan nan nan nan nan nan nan nan nan nan nan nan nan nan nan nan nan nan nan nan nan nan 3 3 7 12 12 18 22 27 27 34 43 52 52 60 69 83 92 92 105 112 125 125 141 151 163 163 172 177 177 189 201 210 210 225
nan nan nan nan nan nan nan nan nan nan nan nan nan nan nan nan nan nan nan nan nan nan nan nan nan nan nan nan nan nan nan nan nan nan nan nan nan nan nan nan nan nan nan nan nan nan nan nan nan nan nan 1 6 6 12 17 17 20 24 29 29 37 42 51 51 62 74 84 96 96 109 116 124 124 135 150 168 168 178 191 191 201 209 226 226 237
nan nan nan nan nan nan nan nan nan nan nan nan nan nan nan nan nan nan nan nan nan nan nan nan nan nan nan nan nan nan nan nan nan nan nan nan nan nan nan nan nan nan nan nan nan nan nan nan nan nan nan 4 10 10 15 20 20 23 26 30 30 35 44 54 54 64 75 85 99 99 112 125 135 135 142 153 173 173 186 205 205 220 226 238 238 254
nan nan nan nan nan nan nan nan nan nan nan nan nan nan nan nan nan nan nan nan nan nan nan nan nan nan nan nan nan nan nan nan nan nan nan nan nan nan nan nan nan nan nan nan nan nan nan nan nan nan nan 3 10 10 16 20 20 25 29 33 33 38 45 53 53 65 74 86 99 99 109 126 141 141 153 163 174 174 189 204 204 217 230 256 256 277
nan nan nan nan nan nan nan nan nan nan nan nan nan nan nan nan nan nan nan nan nan nan nan nan nan nan nan nan nan nan nan nan nan nan nan nan nan nan nan nan nan nan nan nan nan nan nan nan nan nan nan 3 12 12 18 23 23 29 33 36 36 38 43 51 51 62 72 81 92 92 105 121 131 131 143 160 171 171 199 212 212 233 264 285 285 303
nan nan nan nan nan nan nan nan nan nan nan nan nan nan nan nan nan nan nan nan nan nan nan nan nan nan nan nan nan nan nan nan nan nan nan nan nan nan nan nan nan nan nan nan nan nan nan nan nan nan nan 6 15 15 21 26 26 32 35 36 36 37 40 48 48 59 68 75 85 85 96 113 125 125 146 164 176 176 204 227 227 241 264 287 287 294
nan nan nan nan nan nan nan nan nan nan nan nan nan nan nan nan nan nan nan nan nan nan nan nan nan nan nan nan nan nan nan nan nan nan nan nan nan nan nan nan nan nan nan nan nan nan nan nan nan nan nan 10 14 14 23 29 29 35 38 37 37 38 39 43 43 52 62 75 83 83 95 111 127 127 146 162 173 173 193 211 211 222 241 259 259 271
nan nan nan nan nan nan nan nan nan nan nan nan nan nan nan nan nan nan nan nan nan nan nan nan nan nan nan nan nan nan nan nan nan nan nan nan nan nan nan nan nan nan nan nan nan nan nan nan nan nan nan 4 15 15 23 30 30 36 41 40 40 37 36 41 41 48 61 70 79 79 89 103 118 118 134 143 163 163 177 202 202 215 234 266 266 283
nan nan nan nan nan nan nan nan nan nan nan nan nan nan nan nan nan nan nan nan nan nan nan nan nan nan nan nan nan nan nan nan nan nan nan nan nan nan nan nan nan nan nan nan nan nan nan nan nan nan nan nan 13 13 24 31 31 37 41 40 40 36 34 38 38 44 55 65 75 75 78 88 106 106 124 141 162 162 183 208 208 231 259 288 288 310
nan nan nan nan nan 3 4 2 2 2 nan nan nan nan nan nan nan nan nan nan nan nan nan nan nan nan nan nan nan nan nan nan nan nan nan nan nan nan nan nan nan nan nan nan nan nan nan nan nan nan nan nan 8 8 21 30 30 35 40 40 40 35 33 34 34 40 48 57 67 67 77 90 101 101 118 141 169 169 194 221 221 247 265 290 290 297
25 13 11 13 13 23 26 23 22 22 25 9 nan nan nan nan nan nan nan nan nan nan nan nan nan nan nan nan nan nan nan nan nan nan nan nan nan nan nan nan nan nan nan nan nan nan nan nan nan nan nan nan nan nan 14 26 26 30 33 38 38 38 32 29 29 35 44 50 65 65 76 89 102 102 121 149 177 177 203 218 218 240 252 252 252 272
120 50 31 28 28 31 36 36 40 40 43 46 39 39 3 nan nan nan nan nan nan nan nan nan nan nan nan nan nan nan nan nan nan nan nan nan nan nan nan nan nan nan nan nan nan nan nan nan nan nan nan nan nan nan nan 19 19 26 30 34 34 33 30 28 28 31 39 49 63 63 77 89 102 102 124 147 179 179 196 214 214 223 224 177 177 93
147 117 55 38 38 38 40 43 51 51 60 66 76 76 31 nan nan nan nan nan nan nan nan nan nan nan nan nan nan nan nan nan nan nan nan nan nan nan nan nan nan nan nan nan nan nan nan nan nan nan nan nan nan nan nan 12 12 21 29 31 31 32 28 26 26 30 39 51 67 67 80 89 103 103 120 142 164 164 185 190 190 194 169 122 122 65
62 116 104 68 68 59 45 27 51 51 71 77 82 82 62 2 1 1 nan nan nan nan nan nan nan nan nan nan nan nan nan nan nan nan nan nan nan nan nan nan nan nan nan nan nan nan nan nan nan nan nan nan nan nan nan nan nan nan 3 24 24 24 24 26 26 32 42 51 64 64 79 87 98 98 109 127 150 150 168 178 178 153 94 64 64 50
0 nan 0 16 16 29 25 12 33 33 87 108 106 106 84 5 nan nan nan nan nan nan nan nan nan nan nan nan nan nan nan nan nan nan nan nan nan nan nan nan nan nan nan nan nan nan nan nan nan nan nan nan nan nan nan nan nan nan nan nan nan 1 18 25 25 31 39 47 58 58 70 80 87 87 97 114 133 133 149 163 163 126 62 47 47 45
nan nan nan nan nan nan nan nan nan nan nan nan nan nan nan nan nan nan nan nan nan nan nan nan nan nan nan nan nan nan nan nan nan nan nan nan nan nan nan nan nan nan nan nan nan nan nan nan nan nan nan nan nan nan nan nan nan nan nan nan nan nan 5 13 13 14 13 29 41 41 54 64 70 70 75 84 99 99 110 116 116 104 52 25 25 34
nan nan nan nan nan nan nan nan nan nan nan nan nan nan nan nan nan nan nan nan nan nan nan nan nan nan nan nan nan nan nan nan nan nan nan nan nan nan nan nan nan nan nan nan nan nan nan nan nan nan nan nan nan nan nan nan nan nan nan nan nan nan nan nan nan nan 1 8 15 15 40 52 62 62 68 76 87 87 95 107 107 111 94 31 31 45
nan nan nan nan nan nan nan nan nan nan nan nan nan nan nan nan nan nan nan nan nan nan nan nan nan nan nan nan nan nan nan nan nan nan nan nan nan nan nan nan nan nan nan nan nan nan nan nan nan nan nan nan nan nan nan nan nan nan nan nan nan nan nan nan nan nan nan nan nan nan 3 10 40 40 50 64 75 75 93 110 110 121 132 95 95 64
nan nan nan nan nan nan nan nan nan nan nan nan nan nan nan nan nan nan nan nan nan nan nan nan nan nan nan nan nan nan nan nan nan nan nan nan nan nan nan nan nan nan nan nan nan nan nan nan nan nan nan nan nan nan nan nan nan nan nan nan nan nan nan nan nan nan nan nan nan nan nan nan 5 5 22 48 73 73 100 116 116 129 137 145 145 101
nan nan nan nan nan nan nan nan nan nan nan nan nan nan nan nan nan nan nan nan nan nan nan nan nan nan nan nan nan nan nan nan nan nan nan nan nan nan nan nan nan nan nan nan nan nan nan nan nan 1 1 nan nan nan nan nan nan nan nan nan nan nan nan nan nan nan nan nan nan nan nan 0 3 3 10 59 86 86 102 111 111 114 113 114 114 111
0 nan nan nan nan nan nan nan nan nan nan nan nan nan nan nan nan nan nan nan nan nan nan nan nan nan nan nan nan nan nan nan nan nan nan nan nan nan nan nan nan nan nan nan nan nan nan nan nan nan nan nan nan nan nan nan nan nan nan nan nan nan nan nan nan nan nan nan nan nan nan 0 4 4 13 52 60 60 79 93 93 86 92 97 97 105
1 0 nan nan nan nan nan nan nan nan nan nan nan nan nan nan nan nan nan nan nan nan nan nan nan nan nan nan nan nan nan nan nan nan nan nan nan nan nan nan nan nan nan nan nan nan nan nan nan nan nan nan nan nan nan nan nan nan nan nan nan nan nan nan nan nan nan nan nan nan 1 1 1 1 4 11 12 12 15 14 14 50 76 77 77 92
0 nan nan nan nan nan nan nan nan nan nan nan nan nan nan nan nan nan nan nan nan nan nan nan nan nan nan nan nan nan nan nan nan nan nan nan nan nan nan nan nan nan nan nan nan nan nan nan nan nan nan nan nan nan nan nan nan nan nan nan nan nan nan nan nan nan nan nan nan nan 0 nan nan nan 1 3 10 10 11 14 14 29 29 15 15 41
nan nan nan nan nan nan nan nan nan nan nan nan nan nan nan nan nan nan nan nan nan nan nan nan nan nan nan nan nan nan nan nan nan nan nan nan nan nan nan nan nan nan nan nan nan nan nan nan nan nan nan nan nan nan nan nan nan nan 3 nan nan nan nan nan nan nan nan nan nan nan nan nan nan nan 1 4 7 7 9 7 7 13 17 8 8 4
nan nan nan nan nan nan nan nan nan nan nan nan nan nan nan nan nan nan nan nan nan nan nan nan nan nan nan nan nan nan nan nan nan nan nan nan nan nan nan nan nan nan nan nan nan nan nan nan nan nan nan nan nan nan nan nan nan 6 12 nan nan nan nan nan nan nan nan nan nan nan nan nan 2 2 1 6 6 6 9 8 8 8 13 6 6 5
1 nan nan nan nan nan nan nan nan nan nan nan nan nan nan nan nan nan nan nan nan nan nan nan nan nan nan nan nan nan nan nan nan nan nan nan nan nan nan nan nan nan nan nan nan nan nan nan nan nan nan nan nan nan nan nan nan 1 3 nan nan nan 0 nan nan nan nan nan nan nan nan nan nan nan 1 4 4 4 12 9 9 25 26 12 12 8
nan nan nan nan nan nan nan nan nan nan nan nan nan nan nan nan nan nan nan nan nan nan nan nan nan nan nan nan nan nan nan nan nan nan nan nan nan nan nan nan nan nan nan nan nan nan nan nan nan nan nan nan nan nan nan nan nan nan nan 0 0 nan nan nan nan nan nan nan nan nan nan nan nan nan 1 7 7 7 12 26 26 45 38 14 14 7
nan nan nan nan nan nan nan nan nan nan nan nan nan nan nan nan nan nan nan nan nan nan nan nan nan nan nan nan nan nan nan nan nan nan nan nan nan nan nan nan nan nan nan nan nan nan nan nan nan nan nan nan nan nan nan nan nan nan nan nan nan nan nan nan nan nan nan nan nan nan nan nan nan nan 3 8 9 9 12 12 12 10 27 15 15 8
nan nan nan nan nan nan nan nan nan nan nan nan nan nan nan nan nan nan nan nan nan nan nan nan nan nan nan nan nan nan nan nan nan nan nan nan nan nan nan nan nan nan nan nan nan nan nan nan nan nan nan nan nan nan nan nan nan nan nan nan nan nan nan nan nan nan nan nan nan nan nan nan 0 0 2 3 4 4 10 13 13 14 12 9 9 8
nan nan nan nan nan nan nan nan nan nan nan nan nan nan nan nan nan nan nan nan nan nan nan nan nan nan nan nan nan nan nan nan nan nan nan nan nan nan nan nan nan nan nan nan nan nan nan nan nan nan nan nan nan nan nan nan nan nan nan nan nan nan nan nan nan nan nan nan nan nan nan nan nan nan 0 2 4 4 8 8 8 7 5 4 4 6
nan nan nan nan nan nan nan nan nan nan nan nan nan nan nan nan nan nan nan nan nan nan nan nan nan nan nan nan nan nan nan nan nan nan nan nan nan nan nan nan nan nan nan nan nan nan nan nan nan nan nan nan nan nan nan nan nan nan nan nan nan nan nan nan nan nan nan nan nan nan nan nan nan nan 0 3 5 5 3 2 2 1 2 4 4 5
nan nan nan nan nan nan nan nan nan nan nan nan nan nan nan nan nan nan nan nan nan nan nan nan nan nan nan nan nan nan nan nan nan nan nan nan nan nan nan nan nan nan nan nan nan nan nan nan nan nan nan nan nan nan nan nan nan nan nan nan nan nan nan nan nan nan nan nan nan nan nan nan nan nan 0 1 2 2 1 0 0 0 0 2 2 4
nan nan nan nan nan nan nan nan nan nan nan nan nan nan nan nan nan nan nan nan nan nan nan nan nan nan nan nan nan nan nan nan nan nan nan nan nan nan nan nan nan nan nan nan nan nan nan nan nan nan nan nan nan nan nan nan nan nan nan nan nan nan nan nan nan nan nan nan nan nan nan nan nan nan nan nan 0 0 0 nan nan 0 0 1 1 4
nan nan nan nan nan nan nan nan nan nan nan nan nan nan nan nan nan nan nan nan nan nan nan nan nan nan nan nan nan nan nan nan nan nan nan nan nan nan nan nan nan nan nan nan nan nan nan nan nan nan 0 nan nan nan nan nan nan nan nan nan nan nan nan nan nan nan nan nan nan nan nan nan nan nan nan nan nan nan 0 0 0 0 0 1 1 4
nan nan nan nan nan nan nan nan nan nan nan nan nan nan nan nan nan nan nan nan nan nan nan nan nan nan nan nan nan nan nan nan nan nan nan nan nan nan nan nan nan nan nan nan nan nan nan nan nan nan nan 15 1 1 nan nan nan nan nan nan nan nan nan nan nan nan nan nan nan nan nan nan nan nan nan nan 1 1 1 1 1 0 nan 0 0 2